[Iaude] MPEC T52: 2023 TG1 [a=1.45,e=0.31,i=1.4,H=24.9]
    mpec at marsden.cfa.harvard.edu 
    mpec at marsden.cfa.harvard.edu
       
    Fri Oct  6 20:51:14 EDT 2023
    
    
  
M.P.E.C. 2023-T52                               Issued 2023 October 7, 00:49 UT
     The Minor Planet Electronic Circulars contain information on unusual
         minor planets, routine data on comets and natural satellites,
         and occasional editorial announcements.  They are published
    on behalf of Division F of the International Astronomical Union by the
          Minor Planet Center, Smithsonian Astrophysical Observatory,
                          Cambridge, MA 02138, U.S.A.
			  
             Prepared using the Tamkin Foundation Computer Network
                              MPC at CFA.HARVARD.EDU
            URL https://www.minorplanetcenter.net/    ISSN 1523-6714
                                    2023 TG1                                    
Observations:
     K23T01G*1C2023 10 05.10004221 56 16.984+13 48 36.29               VET052G96
     K23T01G 1C2023 10 05.10563521 56 22.294+13 48 46.48         19.97GVET052G96
     K23T01G 1C2023 10 05.11124521 56 27.647+13 48 56.41         19.86GVET052G96
     K23T01G 1C2023 10 05.11684321 56 33.047+13 49 06.31         19.79GVET052G96
     K23T01G  C2023 10 05.13666121 56 44.52 +13 52 50.1                WET052X09
     K23T01G  C2023 10 05.14366121 56 51.22 +13 53 01.2                WET052X09
     K23T01G  C2023 10 05.21769521 58 08.440+13 51 49.67         19.9 GVET052H01
     K23T01G  C2023 10 05.22456221 58 14.970+13 52 00.54         19.8 GVET052H01
     K23T01G mC2023 10 05.22581321 58 16.741+13 52 07.57         20.19GVET052I52
     K23T01G mC2023 10 05.22613621 58 17.058+13 52 08.33         19.63GVET052I52
     K23T01G mC2023 10 05.22645821 58 17.357+13 52 09.12               VET052I52
     K23T01G mC2023 10 05.22677821 58 17.677+13 52 09.44               VET052I52
     K23T01G  C2023 10 05.23137321 58 21.470+13 52 11.12         19.7 GVET052H01
     K23T01G  C2023 10 05.24009221 58 29.769+13 52 24.33         19.4 GVET052H01
     K23T01G KB2023 10 05.80929 22 08 05.53 +14 06 16.9          19.3 VZET052C95
     K23T01G KB2023 10 05.82367 22 08 18.90 +14 06 38.1          19.6 VZET052C95
     K23T01G 0B2023 10 05.82469022 08 18.405+14 10 01.33         19.8 VZET052M49
     K23T01G 0B2023 10 05.82948122 08 22.758+14 10 07.86         19.8 VZET052M49
     K23T01G 0B2023 10 05.83427022 08 27.096+14 10 15.04         19.6 VZET052M49
     K23T01G KB2023 10 05.83808 22 08 32.26 +14 06 59.2          19.7 VZET052C95
     K23T01G KB2023 10 05.90108422 09 31.29 +14 08 25.0          20.0 V ET052I93
     K23T01G KB2023 10 05.91208022 09 41.40 +14 08 39.9          19.3 V ET052I93
     K23T01G KC2023 10 06.05226822 12 03.86 +14 11 59.2          19.5 VuET052H21
     K23T01G KC2023 10 06.05507522 12 06.42 +14 12 03.2          19.5 VuET052H21
     K23T01G KC2023 10 06.05788122 12 08.98 +14 12 07.1          19.6 VuET052H21
     K23T01G KC2023 10 06.06068722 12 11.55 +14 12 10.9          19.6 VuET052H21
     K23T01G KC2023 10 06.06293222 12 13.61 +14 12 14.0          19.6 VuET052H21
     K23T01G KC2023 10 06.11281122 13 02.12 +14 13 31.2          19.8 GXET052858
     K23T01G KC2023 10 06.11721022 13 06.11 +14 13 37.2          19.9 GXET052858
     K23T01G KC2023 10 06.12192722 13 10.39 +14 13 44.1          20.1 GXET052858
     K23T01G KB2023 10 06.79520 22 23 43.91 +14 26 31.0          19.2 GXET052M45
     K23T01G KB2023 10 06.80069 22 23 48.67 +14 26 37.1                XET052M45
     K23T01G KC2023 10 06.80174022 23 51.36 +14 26 36.7                XET052595
     K23T01G KB2023 10 06.80745 22 23 54.59 +14 26 44.8          19.4 GXET052M45
     K23T01G KC2023 10 06.81789322 24 05.46 +14 26 54.7          19.4 GXET052595
     K23T01G KC2023 10 06.83404622 24 19.51 +14 27 12.9          19.5 GXET052595
     K23T01G KC2023 10 06.86445122 24 45.92 +14 27 45.9          20.1 GVET052L01
     K23T01G KC2023 10 06.86593022 24 47.20 +14 27 47.6          20.4 GVET052L01
     K23T01G KC2023 10 06.86741122 24 48.45 +14 27 49.5          20.1 GVET052L01
     K23T01G KC2023 10 06.86889322 24 49.75 +14 27 50.7          20.3 GVET052L01
     K23T01G KC2023 10 06.87037322 24 51.06 +14 27 52.5          20.2 GVET052L01
     K23T01G KC2023 10 06.88273422 25 02.51 +14 28 03.7                VET052204
     K23T01G KC2023 10 06.89093022 25 09.60 +14 28 11.8                VET052204
     K23T01G KC2023 10 06.89912522 25 16.72 +14 28 20.6          19.9 GVET052204
Observer details:
204 Schiaparelli Observatory.  Observers L. Buzzi, G. Galli.  0.84-m f/3.5
    reflector + CCD.
595 Farra d'Isonzo.  Observer E. Pettarin.  0.61-m f/4.5 reflector + CCD.
858 Tebbutt Observatory, Edgewood.  Observer F. B. Zoltowski.  0.51-m f/8.1
    Schmidt-Cassegrain + CCD.
C95 SATINO Remote Observatory, Haute Provence.  Observers D. Husar, K. Meo.
    Measurer D. Husar.  0.30-m f/5.8 reflector + CMO.
G96 Mt. Lemmon Survey.  Observer G. J. Leonard.  Measurers E. C. Beshore, D.
    Fay, J. B. Fazekas, D. C. Fuls, A. R. Gibbs, A. D. Grauer, H. Groeller, J.
    K. Hogan, R. A. Kowalski, S. M. Larson, G. J. Leonard, D. Rankin, R. L.
    Seaman, F. C. Shelly, K. W. Wierzchos.  1.5-m reflector + 10K CCD.
H01 Magdalena Ridge Observatory, Socorro.  Observers W. H. Ryan, E. V. Ryan.
    Measurer W. H. Ryan.  2.4-m f/8.9 Ritchey-Chretien + CCD.
H21 Astronomical Research Observatory, Westfield.  Observer R. Holmes.
    Measurers T. Linder, R. Holmes, L. Horn.  0.81-m f/4.0 astrograph + CCD.
I52 Steward Observatory, Mt. Lemmon Station.  Observer D. Rankin.  Measurers
    E. C. Beshore, D. Fay, J. B. Fazekas, D. C. Fuls, A. R. Gibbs, A. D.
    Grauer, H. Groeller, J. K. Hogan, R. A. Kowalski, S. M. Larson, G. J.
    Leonard, D. Rankin, R. L. Seaman, F. C. Shelly, K. W. Wierzchos.  1.0-m
    prime focus + CCD.
I93 St Pardon de Conques.  Observer F. Losse.  0.40-m f/3.7 reflector + CMO.
L01 Visnjan Observatory, Tican.  Observer K. Korlevic.  1.0-m f/2.9 reflector
    + CCD.
M45 Starhopper Observatory, Sfantu Gheorghe.  Observer F. Ursache.  0.41-m
    f/7.5 reflector + CMO.
M49 IAS Remote Observatory, Hakos.  Observers D. Husar, M. Junius.  Measurer
    D. Husar.  0.25-m f/4.5 reflector + CMO.
X09 Deep Random Survey, Rio Hurtado.  Observers A. Schnabel, D. Ruhela.
    Measurers D. Ruhela, S. Deen.  0.43-m reflector + CMOS.
Orbital elements:
2023 TG1                                                 Earth MOID = 0.0225 AU
Epoch 2023 Sept. 13.0 TT = JDT 2460200.5                Veres                   
M   4.22373              (2000.0)            P               Q                  
n   0.56704590     Peri.   95.64001     +0.92209711     +0.38637615             
a   1.4456303      Node   241.63236     -0.36389135     +0.84717167             
e   0.3103880      Incl.    1.38204     -0.13160549     +0.36471035             
P   1.74           H   24.94          G   0.15           U   8                  
Residuals in seconds of arc
231005 G96  1.0+  0.1-    231005 C95  0.3+  0.3+    231006 M45  0.2-  0.2-
231005 G96  0.1-  0.1+    231005 M49  0.2+  0.4-    231006 M45  0.6-  0.1-
231005 G96  0.6-  0.1+    231005 M49  0.1+  0.7-    231006 595  0.5-  0.0
231005 G96  0.2-  0.0     231005 M49  0.1-  0.2-    231006 M45  0.1-  0.3+
231005 X09  0.2-  0.5+    231005 C95  0.5+  0.5+    231006 595  0.4-  0.1-
231005 X09  0.1-  0.7+    231005 I93  0.3-  0.3+    231006 595  0.5-  0.4+
231005 H01  0.0   0.1-    231005 I93  0.6-  0.4+    231006 L01  0.2+  0.4-
231005 H01  0.1-  0.0     231006 H21  0.0   0.4+    231006 L01  0.2+  0.2-
231005 I52  0.3-  0.3-    231006 H21  0.1-  0.4+    231006 L01  0.3-  0.2+
231005 I52  0.2-  0.0     231006 H21  0.2-  0.3+    231006 L01  0.1-  0.2-
231005 I52  0.3-  0.3+    231006 H21  0.1-  0.2+    231006 L01  0.3+  0.1+
231005 I52  0.0   0.1+    231006 H21  0.1+  0.1+    231006 204  0.2+  0.1-
231005 H01  0.2+  0.0     231006 858  0.0   0.3-    231006 204  0.0   0.3-
231005 H01  0.0   0.1-    231006 858  0.1+  0.4-    231006 204  0.4+  0.3+
231005 C95  0.0   0.2+    231006 858  0.2+  0.0
Ephemeris:
2023 TG1                 a,e,i = 1.45, 0.31, 1                   q = 0.9969
Date    TT    R. A. (2000) Decl.     Delta      r    Elong.  Phase     V
2023 09 07    16 19 05.0 -05 44 15   0.08954 0.9970    80.4    94.5    23.1
...
2023 09 22    18 11 52.8 +01 59 03   0.05181 1.0093    94.4    82.7    21.4
...
2023 09 30    20 21 50.5 +10 04 35   0.04325 1.0238   119.7    58.2    20.3
...
2023 10 06    22 11 07.8 +14 12 09   0.04827 1.0380   141.0    37.3    19.9
2023 10 07    22 26 49.9 +14 31 33   0.05004 1.0406   144.0    34.4    19.9
2023 10 08    22 41 31.1 +14 45 43   0.05203 1.0433   146.6    31.8    20.0
...
2023 10 14    23 49 14.4 +14 58 47   0.06769 1.0608   158.0    20.6    20.2
...
2023 10 22    00 40 45.7 +14 09 02   0.09540 1.0875   164.2    14.4    20.8
...
2023 11 06    01 26 39.1 +12 51 46   0.1616  1.1459   161.5    15.9    22.1
M. P. C. Staff               (C) Copyright 2023 MPC           M.P.E.C. 2023-T52
    
    
More information about the Iaude
mailing list